{"data":{"norad_id":62256,"intl_designator":"2024-233A","name":"PROBA-3 CSC","alt_names":[],"object_type":"PAYLOAD","status":"ACTIVE","operator":null,"country":"ESA","launch_date":"2024-12-05","launch_site_code":"SRILR","launch_vehicle":null,"mission":null,"orbit_class":"UNKNOWN","rcs_meters":null,"size_class":null,"mass_kg":null,"dimensions":null,"purposes":[],"wikipedia_slug":null,"has_3d_model":false,"image_url":null,"decayed_at":null,"tle_current":{"epoch":"2026-09-18T16:18:44.866944Z","epoch_age_seconds":466828,"freshness":"STALE","line1":"1 62256U 24233A   26261.67968596 -.00000077  00000+0  00000+0 0  9991","line2":"2 62256  59.8066  89.6973 7995376 208.1416  62.4365  1.22078122  7960","mean_motion":1.22078122,"eccentricity":0.7995376,"inclination_deg":59.8066,"raan_deg":89.6973,"arg_perigee_deg":208.1416,"mean_anomaly_deg":62.4365,"bstar":0,"rev_number":796,"period_min":1179.5725363468,"perigee_km":1035.1282636422,"apogee_km":60170.251030364,"semimajor_km":36980.826647003,"source":"CELESTRAK","updated_at":"2026-09-23T09:00:21.338084Z"}}}